Content
SEND FEEDBACK

Daily
Averages
Monthly
Summary
United States of America

BELLEVILLE, MICHIGAN


Home > North America > United States > Michigan
Elevation: 780 feet     Latitude: 42 14N     Longitude: 083 32W

WEATHER
 
SELECT A DAY
Number of Records: 207,382;   Date Range: 1/1/95 - 12/16/14
 
SHARE

PRINT THIS DATA

[ ← Previous Day ]
WEATHER ALMANAC - JANUARY 6, 2013
[ Next Day → ]
[ °C ]   °F
Weather ElementAverageHighLow
Temperature35.8 °F37.9 °F (1:53 pm)35.1 °F (12:53 am)
Dewpoint28.9 °F30.9 °F (12:53 pm)25 °F (10:53 pm)
Humidity76.1 %82 % (12:53 am)67 % (10:53 pm)
Barometer30.01 in30.27 in (11:53 pm)29.92 in (12:38 pm)
Wind Speed13.2 mph18.4 mph (4:09 pm)
Wind Gust21.9 mph (2:33 am)
Weather ElementAverage
Visibility5.2 mi
Wind DirectionWSW (248.6 °)

Weather ElementTotal
Precipitation0.02 in
Heating Degree Days28.5 (Base 65)
Averaged from 43 records on January 6, 2013
WEATHER CONDITIONS BREAKOUT
WIND DIRECTION BREAKOUT
WEATHER BY HOUR - JANUARY 6, 2013
[ °C ]   °F
Local TimeTemperatureDewpointHumidityBarometerVisibilityWind DirectionWind SpeedGust SpeedPrecipitationEventsConditions
12:22 AM35.6 °F30.2 °F81 %30.02 in4.0 miSSW (210°)15.0 mph0.00 inSnowLight Snow
12:53 AM35.1 °F30.0 °F82 %30.02 in6.0 miSSW (210°)17.3 mph0.00 inHaze
1:19 AM35.6 °F28.4 °F75 %30.00 in6.0 miSW (220°)15.0 mphHaze
1:53 AM35.1 °F28.9 °F78 %30.00 in6.0 miSSW (200°)16.1 mphHaze
2:33 AM35.6 °F28.4 °F75 %29.97 in6.0 miSW (220°)17.3 mph21.9 mphHaze
2:53 AM36.0 °F28.9 °F76 %29.99 in6.0 miSW (220°)16.1 mphHaze
3:06 AM35.6 °F28.4 °F75 %29.97 in7.0 miSSW (210°)16.1 mphOvercast
3:53 AM36.0 °F28.9 °F76 %29.97 in6.0 miSW (220°)11.5 mphHaze
4:13 AM35.6 °F28.4 °F75 %29.95 in7.0 miSW (220°)13.8 mphOvercast
4:53 AM35.1 °F28.9 °F78 %29.95 in5.0 miSSW (210°)13.8 mph0.00 inHaze
5:53 AM35.1 °F28.9 °F78 %29.94 in7.0 miSSW (210°)11.5 mph0.00 inOvercast
7:53 AM36.0 °F30.0 °F79 %29.93 in7.0 miSSW (210°)12.7 mphOvercast
8:53 AM36.0 °F28.9 °F76 %29.94 in6.0 miSSW (200°)12.7 mphHaze
9:53 AM36.0 °F28.9 °F76 %29.94 in6.0 miSSW (210°)12.7 mphHaze
10:53 AM37.0 °F30.0 °F76 %29.95 in6.0 miSW (220°)15.0 mphHaze
11:08 AM37.4 °F30.2 °F75 %29.93 in6.0 miSW (220°)13.8 mph21.9 mphHaze
11:53 AM37.0 °F30.0 °F76 %29.94 in6.0 miSW (220°)15.0 mphHaze
12:38 PM37.4 °F30.2 °F75 %29.92 in2.5 miSW (220°)13.8 mphHaze
12:53 PM37.0 °F30.9 °F79 %29.93 in2.5 miSW (220°)10.4 mphHaze
1:05 PM37.4 °F30.2 °F75 %29.92 in3.0 miSW (230°)10.4 mphHaze
1:51 PM37.4 °F30.2 °F75 %29.92 in5.0 miWSW (250°)13.8 mph0.00 inSnowLight Snow
1:53 PM37.9 °F30.9 °F76 %29.94 in4.0 miWSW (250°)13.8 mph0.00 inSnowLight Snow
2:25 PM35.6 °F30.2 °F81 %29.93 in2.5 miWest (260°)13.8 mph0.00 inSnowLight Snow
2:42 PM35.6 °F30.2 °F81 %29.94 in3.0 miWest (260°)15.0 mph0.01 inHaze
2:53 PM36.0 °F30.0 °F79 %29.96 in3.0 miWest (260°)13.8 mph0.01 inHaze
3:30 PM35.6 °F30.2 °F81 %29.97 in3.0 miWSW (250°)16.1 mph0.00 inRainLight Rain
3:41 PM35.6 °F30.2 °F81 %29.98 in3.0 miWSW (250°)12.7 mph0.00 inRainLight Rain
3:53 PM35.1 °F30.0 °F82 %30.00 in3.0 miWSW (250°)13.8 mph0.00 inRainLight Rain
3:59 PM35.6 °F30.2 °F81 %29.99 in2.0 miWest (270°)15.0 mph0.00 inRainLight Rain
4:09 PM35.6 °F30.2 °F81 %30.00 in3.0 miWNW (290°)18.4 mph21.9 mph0.00 inRainLight Rain
4:17 PM35.6 °F28.4 °F75 %30.00 in4.0 miWNW (290°)15.0 mph0.00 inHaze
4:26 PM35.6 °F28.4 °F75 %30.01 in5.0 miWNW (290°)15.0 mph0.00 inHaze
4:33 PM35.6 °F28.4 °F75 %30.01 in5.0 miWest (280°)13.8 mph0.00 inHaze
4:53 PM35.1 °F28.0 °F76 %30.04 in5.0 miWest (280°)11.5 mph0.00 inHaze
5:53 PM35.1 °F28.0 °F76 %30.08 in6.0 miWest (270°)11.5 mphHaze
6:05 PM35.6 °F28.4 °F75 %30.08 in5.0 miWest (280°)6.9 mphHaze
6:53 PM35.1 °F27.0 °F72 %30.13 in7.0 miWest (280°)9.2 mphOvercast
7:05 PM35.6 °F26.6 °F70 %30.12 in7.0 miWNW (290°)9.2 mphOvercast
7:53 PM35.1 °F27.0 °F72 %30.16 in6.0 miWNW (290°)10.4 mphHaze
8:53 PM35.1 °F26.1 °F70 %30.19 in8.0 miNW (320°)9.2 mphOvercast
9:53 PM35.1 °F26.1 °F70 %30.21 in8.0 miNW (310°)9.2 mphOvercast
10:53 PM35.1 °F25.0 °F67 %30.24 in8.0 miNW (310°)9.2 mphOvercast
11:53 PM35.1 °F25.0 °F67 %30.27 in9.0 miNW (310°)9.2 mphOvercast
Hourly data recorded from KYIP, located miles away from Belleville, Michigan







STORIES FROM OUR PARTNERS